TimeCDT,TemperatureF,Dew PointF,Humidity,Sea Level PressureIn,VisibilityMPH,Wind Direction,Wind SpeedMPH,Gust SpeedMPH,PrecipitationIn,Events,Conditions,WindDirDegrees,DateUTC
12:15 AM,78.3,73.0,84,29.98,10.0,SSE,9.2,-,N/A,,Clear,160,2012-10-10 05:15:00
12:35 AM,78.3,73.6,85,29.98,10.0,SSE,8.1,-,N/A,,Clear,160,2012-10-10 05:35:00
12:55 AM,78.4,73.8,85,29.97,10.0,SSE,10.4,-,N/A,,Clear,160,2012-10-10 05:55:00
1:15 AM,78.8,74.3,86,29.97,10.0,SSE,10.4,-,N/A,,Clear,160,2012-10-10 06:15:00
1:35 AM,78.8,74.3,86,29.97,10.0,SSE,9.2,-,N/A,,Clear,160,2012-10-10 06:35:00
1:55 AM,78.8,74.5,87,29.97,10.0,SSE,9.2,-,N/A,,Clear,160,2012-10-10 06:55:00
2:15 AM,78.8,74.7,87,29.97,10.0,SSE,9.2,-,N/A,,Clear,160,2012-10-10 07:15:00
2:35 AM,78.8,74.8,88,29.96,10.0,SSE,10.4,-,N/A,,Clear,160,2012-10-10 07:35:00
2:55 AM,78.8,75.2,89,29.96,10.0,SSE,10.4,-,N/A,,Clear,160,2012-10-10 07:55:00
3:15 AM,79.0,75.2,88,29.95,10.0,SSE,8.1,-,N/A,,Clear,160,2012-10-10 08:15:00
3:35 AM,78.8,75.4,89,29.95,10.0,SSE,9.2,-,N/A,,Clear,160,2012-10-10 08:35:00
3:55 AM,79.0,75.6,89,29.95,10.0,SSE,8.1,-,N/A,,Clear,160,2012-10-10 08:55:00
4:15 AM,79.0,75.6,89,29.94,10.0,SSE,10.4,-,N/A,,Clear,160,2012-10-10 09:15:00
4:35 AM,79.2,75.7,89,29.94,10.0,SSE,8.1,-,N/A,,Clear,160,2012-10-10 09:35:00
4:55 AM,79.0,75.7,90,29.95,10.0,South,6.9,-,N/A,,Clear,170,2012-10-10 09:55:00
5:15 AM,79.0,75.7,90,29.96,10.0,SSE,5.8,-,N/A,,Clear,160,2012-10-10 10:15:00
5:35 AM,78.8,75.6,90,29.96,10.0,SSE,5.8,-,N/A,,Scattered Clouds,150,2012-10-10 10:35:00
5:55 AM,78.1,75.0,90,29.98,10.0,ESE,4.6,-,N/A,,Scattered Clouds,120,2012-10-10 10:55:00
6:15 AM,77.7,75.0,91,29.98,7.0,ESE,3.5,-,N/A,,Clear,120,2012-10-10 11:15:00
6:35 AM,77.4,74.7,91,29.99,7.0,Calm,Calm,-,N/A,,Clear,0,2012-10-10 11:35:00
6:55 AM,75.7,73.4,92,30.00,4.0,NNE,4.6,-,N/A,,Scattered Clouds,20,2012-10-10 11:55:00
7:15 AM,75.6,73.4,93,30.01,4.0,NNE,4.6,-,N/A,,Mostly Cloudy,30,2012-10-10 12:15:00
7:35 AM,75.7,73.6,93,30.02,4.0,NNE,5.8,-,N/A,,Mostly Cloudy,30,2012-10-10 12:35:00
7:55 AM,76.5,74.3,93,30.02,5.0,NNE,4.6,-,N/A,,Overcast,30,2012-10-10 12:55:00
8:15 AM,77.4,75.0,92,30.03,5.0,NNE,4.6,-,N/A,,Overcast,20,2012-10-10 13:15:00
8:35 AM,78.3,75.9,92,30.03,7.0,Calm,Calm,-,N/A,,Scattered Clouds,0,2012-10-10 13:35:00
8:55 AM,79.7,76.6,90,30.04,10.0,NNE,4.6,-,N/A,,Clear,30,2012-10-10 13:55:00
9:15 AM,81.0,76.6,87,30.05,10.0,NNE,3.5,-,N/A,,Clear,30,2012-10-10 14:15:00
9:35 AM,81.5,76.6,85,30.06,10.0,NE,4.6,-,N/A,,Clear,50,2012-10-10 14:35:00
9:55 AM,79.9,75.6,87,30.07,10.0,NNE,5.8,-,N/A,,Scattered Clouds,30,2012-10-10 14:55:00
10:15 AM,79.3,75.4,88,30.07,7.0,NE,3.5,-,N/A,Rain,Light Rain,40,2012-10-10 15:15:00
10:35 AM,80.1,76.5,89,30.07,10.0,ESE,4.6,-,N/A,Rain,Light Rain,110,2012-10-10 15:35:00
10:55 AM,81.5,76.5,85,30.07,10.0,Calm,Calm,-,N/A,Rain,Light Rain,0,2012-10-10 15:55:00
11:15 AM,83.8,76.6,79,30.07,10.0,East,3.5,-,N/A,,Scattered Clouds,100,2012-10-10 16:15:00
11:35 AM,85.5,77.2,76,30.07,10.0,SE,5.8,-,N/A,,Scattered Clouds,130,2012-10-10 16:35:00
11:55 AM,86.5,77.0,73,30.06,10.0,ESE,6.9,-,N/A,,Mostly Cloudy,120,2012-10-10 16:55:00
12:15 PM,87.6,76.1,68,30.06,10.0,SSE,8.1,-,N/A,,Mostly Cloudy,150,2012-10-10 17:15:00
12:35 PM,88.2,75.6,66,30.05,10.0,SE,9.2,-,N/A,,Mostly Cloudy,130,2012-10-10 17:35:00
12:55 PM,88.3,74.8,64,30.05,10.0,ESE,10.4,-,N/A,,Mostly Cloudy,120,2012-10-10 17:55:00
1:15 PM,86.9,73.2,64,30.04,10.0,ESE,12.7,-,N/A,,Overcast,120,2012-10-10 18:15:00
1:35 PM,87.8,74.3,64,30.02,10.0,SSE,6.9,-,N/A,,Mostly Cloudy,150,2012-10-10 18:35:00
1:55 PM,88.7,74.7,63,30.01,10.0,SE,6.9,-,N/A,,Mostly Cloudy,130,2012-10-10 18:55:00
2:15 PM,90.3,73.0,57,30.00,10.0,SE,11.5,-,N/A,,Scattered Clouds,130,2012-10-10 19:15:00
2:35 PM,90.0,73.0,57,29.99,10.0,SE,11.5,-,N/A,,Clear,130,2012-10-10 19:35:00
2:55 PM,90.1,72.1,55,29.99,10.0,ESE,11.5,-,N/A,,Clear,110,2012-10-10 19:55:00
3:15 PM,90.0,73.4,58,29.99,10.0,East,15.0,-,N/A,,Scattered Clouds,90,2012-10-10 20:15:00
3:35 PM,89.4,74.1,60,30.00,10.0,ESE,12.7,19.6,N/A,,Clear,110,2012-10-10 20:35:00
3:55 PM,89.4,73.2,59,29.99,10.0,East,12.7,-,N/A,,Clear,90,2012-10-10 20:55:00
4:15 PM,88.3,72.7,60,29.99,-9999.0,East,15.0,-,N/A,,Unknown,90,2012-10-10 21:15:00
4:35 PM,86.7,73.0,64,29.99,10.0,East,16.1,21.9,N/A,,Clear,90,2012-10-10 21:35:00
4:55 PM,85.1,73.8,69,29.99,10.0,East,17.3,-,N/A,,Clear,90,2012-10-10 21:55:00
5:15 PM,84.4,74.1,71,29.99,10.0,East,15.0,23.0,N/A,,Scattered Clouds,90,2012-10-10 22:15:00
5:35 PM,83.8,73.6,71,29.99,10.0,East,18.4,24.2,N/A,,Clear,100,2012-10-10 22:35:00
5:55 PM,83.3,73.4,72,29.98,10.0,ESE,17.3,21.9,N/A,,Clear,110,2012-10-10 22:55:00
6:15 PM,82.6,73.8,75,29.99,10.0,ESE,12.7,-,N/A,,Clear,110,2012-10-10 23:15:00
6:35 PM,82.0,73.2,75,30.00,10.0,ESE,12.7,-,N/A,,Clear,110,2012-10-10 23:35:00
6:55 PM,81.1,72.5,75,30.01,10.0,ESE,13.8,18.4,N/A,,Clear,120,2012-10-10 23:55:00
7:15 PM,81.0,72.3,75,30.01,10.0,ESE,12.7,-,N/A,,Clear,120,2012-10-11 00:15:00
7:35 PM,80.4,73.2,79,30.01,10.0,ESE,13.8,18.4,N/A,,Clear,110,2012-10-11 00:35:00
7:55 PM,79.9,73.8,81,30.02,10.0,ESE,15.0,-,N/A,,Clear,120,2012-10-11 00:55:00
8:15 PM,79.9,73.9,82,30.03,10.0,ESE,17.3,-,N/A,,Clear,120,2012-10-11 01:15:00
8:35 PM,80.1,74.3,82,30.04,10.0,ESE,13.8,19.6,N/A,,Clear,110,2012-10-11 01:35:00
8:55 PM,80.2,75.0,84,30.04,10.0,ESE,12.7,-,N/A,,Clear,110,2012-10-11 01:55:00
9:15 PM,80.2,75.6,86,30.04,10.0,ESE,13.8,20.7,N/A,,Clear,110,2012-10-11 02:15:00
9:35 PM,80.6,75.7,85,30.05,10.0,ESE,13.8,20.7,N/A,,Clear,120,2012-10-11 02:35:00
9:55 PM,80.6,75.6,85,30.05,10.0,ESE,13.8,-,N/A,,Clear,120,2012-10-11 02:55:00
10:15 PM,80.4,75.0,84,30.05,10.0,SE,12.7,-,N/A,,Clear,130,2012-10-11 03:15:00
10:35 PM,80.2,74.8,84,30.04,10.0,SE,15.0,18.4,N/A,,Clear,140,2012-10-11 03:35:00
10:55 PM,80.2,75.2,85,30.04,10.0,SE,12.7,-,N/A,,Clear,140,2012-10-11 03:55:00
11:15 PM,80.1,75.2,85,30.05,10.0,SE,11.5,-,N/A,,Clear,130,2012-10-11 04:15:00
11:35 PM,79.5,74.3,84,30.05,10.0,SE,8.1,-,N/A,,Clear,140,2012-10-11 04:35:00
11:55 PM,79.7,74.8,85,30.05,10.0,SE,8.1,-,N/A,,Clear,140,2012-10-11 04:55:00